ETD714 HECA-OMAA

Flight info

Callsign ETD714
Flight time 3h 5m
Altitude 37000
Route MENLI N697 SISIK W976 TAKSU L550 KARIK B411 DEESA Y415 TAMRO N318 DASVA N685 ORSIS/N0432F350 N685 UMEVU Q415 UKILI
Aircraft A21N/M-SDE2E3FGHIRWXY/LB1

Departure

Time 2026-05-07 13:18
Airport Cairo International Airport (HECA)

Arrival

Time 2026-05-07 16:24
Airport Zayed International Airport (OMAA)
Time Latitude Longitude Altitude Speed Heading
2026-05-07 12:48 30.11096 31.40165 380 ft 0 kts 17°
2026-05-07 13:03 30.11088 31.40162 379 ft 4 kts 18°
2026-05-07 13:03 30.11063 31.40151 379 ft 4 kts 25°
2026-05-07 13:04 30.11039 31.40136 379 ft 4 kts 37°
2026-05-07 13:04 30.11022 31.40115 379 ft 4 kts 72°
2026-05-07 13:04 30.11021 31.40100 379 ft 0 kts 107°
2026-05-07 13:08 30.11019 31.40106 379 ft 2 kts 107°
2026-05-07 13:08 30.11011 31.40136 379 ft 6 kts 107°
2026-05-07 13:08 30.10996 31.40191 379 ft 8 kts 108°
2026-05-07 13:08 30.10976 31.40266 379 ft 11 kts 107°
2026-05-07 13:09 30.10951 31.40358 379 ft 13 kts 106°
2026-05-07 13:09 30.10941 31.40400 379 ft 3 kts 106°
2026-05-07 13:09 30.10925 31.40443 379 ft 7 kts 126°
2026-05-07 13:09 30.10872 31.40461 379 ft 10 kts 199°
2026-05-07 13:10 30.10817 31.40402 380 ft 12 kts 230°
2026-05-07 13:10 30.10758 31.40323 379 ft 14 kts 229°
2026-05-07 13:10 30.10688 31.40230 380 ft 16 kts 229°
2026-05-07 13:10 30.10609 31.40125 380 ft 18 kts 229°
2026-05-07 13:11 30.10522 31.40010 379 ft 20 kts 229°
2026-05-07 13:11 30.10427 31.39884 379 ft 22 kts 229°
2026-05-07 13:11 30.10325 31.39749 379 ft 23 kts 228°
2026-05-07 13:11 30.10215 31.39605 379 ft 25 kts 228°
2026-05-07 13:12 30.10197 31.39586 379 ft 6 kts 214°
2026-05-07 13:12 30.10131 31.39594 379 ft 12 kts 143°
2026-05-07 13:12 30.10078 31.39644 380 ft 0 kts 140°
2026-05-07 13:13 30.10061 31.39660 380 ft 8 kts 140°
2026-05-07 13:13 30.10047 31.39673 380 ft 0 kts 140°
2026-05-07 13:17 30.10016 31.39717 380 ft 13 kts 118°
2026-05-07 13:17 30.10009 31.39822 379 ft 14 kts 80°
2026-05-07 13:17 30.10048 31.39931 375 ft 16 kts 52°
2026-05-07 13:17 30.10184 31.40111 379 ft 61 kts 49°
2026-05-07 13:18 30.10613 31.40681 380 ft 125 kts 49°
2026-05-07 13:18 30.11302 31.41598 381 ft 173 kts 49°
2026-05-07 13:18 30.12077 31.42717 878 ft 180 kts 53°
2026-05-07 13:18 30.12522 31.44092 1524 ft 188 kts 82°
2026-05-07 13:19 30.12210 31.45620 2066 ft 209 kts 115°
2026-05-07 13:19 30.11348 31.46999 2674 ft 221 kts 124°
2026-05-07 13:19 30.10353 31.48475 3221 ft 246 kts 125°
2026-05-07 13:19 30.09245 31.50133 3469 ft 269 kts 125°
2026-05-07 13:20 30.08103 31.51850 3525 ft 270 kts 124°
2026-05-07 13:20 30.06969 31.53573 3989 ft 271 kts 121°
2026-05-07 13:20 30.06082 31.55497 4957 ft 272 kts 112°
2026-05-07 13:20 30.05298 31.57488 5975 ft 272 kts 111°
2026-05-07 13:21 30.04779 31.58812 6615 ft 274 kts 112°
2026-05-07 13:21 30.03717 31.61497 7839 ft 280 kts 112°
2026-05-07 13:21 30.02896 31.63555 8719 ft 286 kts 113°
2026-05-07 13:21 30.02050 31.65664 9564 ft 291 kts 113°
2026-05-07 13:22 30.01187 31.67807 10297 ft 301 kts 114°
2026-05-07 13:22 30.00577 31.69320 10605 ft 314 kts 114°
2026-05-07 13:22 29.99623 31.71682 11048 ft 333 kts 114°
2026-05-07 13:22 29.98642 31.74108 11734 ft 341 kts 114°
2026-05-07 13:23 29.97629 31.76614 12533 ft 347 kts 115°
2026-05-07 13:23 29.96597 31.79162 13341 ft 352 kts 115°
2026-05-07 13:23 29.95555 31.81735 14150 ft 356 kts 115°
2026-05-07 13:23 29.94502 31.84335 14940 ft 361 kts 115°
2026-05-07 13:24 29.93434 31.86968 15708 ft 365 kts 115°
2026-05-07 13:24 29.92348 31.89641 16462 ft 369 kts 115°
2026-05-07 13:24 29.91253 31.92338 17189 ft 374 kts 115°
2026-05-07 13:24 29.90140 31.95076 17904 ft 378 kts 115°
2026-05-07 13:25 29.89019 31.97831 18590 ft 382 kts 115°
2026-05-07 13:25 29.87882 32.00621 19276 ft 386 kts 115°
2026-05-07 13:25 29.86749 32.03403 19933 ft 390 kts 115°
2026-05-07 13:25 29.85591 32.06248 20587 ft 393 kts 115°
2026-05-07 13:26 29.84422 32.09115 21212 ft 397 kts 115°
2026-05-07 13:26 29.83240 32.12011 21830 ft 400 kts 115°
2026-05-07 13:26 29.82049 32.14926 22435 ft 404 kts 115°
2026-05-07 13:26 29.80846 32.17865 22899 ft 407 kts 115°
2026-05-07 13:27 29.79636 32.20820 23065 ft 408 kts 115°
2026-05-07 13:27 29.78426 32.23775 23095 ft 408 kts 115°
2026-05-07 13:27 29.77213 32.26735 23092 ft 408 kts 115°
2026-05-07 13:27 29.76002 32.29686 23085 ft 408 kts 115°
2026-05-07 13:28 29.74804 32.32606 23082 ft 408 kts 115°
2026-05-07 13:28 29.73588 32.35565 23081 ft 408 kts 115°
2026-05-07 13:28 29.72373 32.38520 23075 ft 408 kts 115°
2026-05-07 13:28 29.71158 32.41474 23072 ft 408 kts 115°
2026-05-07 13:29 29.69947 32.44418 23072 ft 407 kts 115°
2026-05-07 13:29 29.68734 32.47361 23070 ft 407 kts 115°
2026-05-07 13:29 29.67521 32.50300 23071 ft 407 kts 115°
2026-05-07 13:29 29.66306 32.53244 23069 ft 407 kts 115°
2026-05-07 13:30 29.65089 32.56190 23070 ft 407 kts 115°
2026-05-07 13:30 29.63885 32.59102 23071 ft 407 kts 115°
2026-05-07 13:30 29.62671 32.62036 23071 ft 407 kts 115°
2026-05-07 13:30 29.61454 32.64976 23233 ft 407 kts 115°
2026-05-07 13:31 29.60407 32.68009 23737 ft 411 kts 105°
2026-05-07 13:31 29.59973 32.71257 24283 ft 413 kts 91°
2026-05-07 13:31 29.59978 32.74563 24828 ft 415 kts 88°
2026-05-07 13:31 29.60048 32.77899 25337 ft 418 kts 88°
2026-05-07 13:32 29.60109 32.81257 25828 ft 421 kts 88°
2026-05-07 13:32 29.60155 32.84599 26287 ft 425 kts 89°
2026-05-07 13:32 29.60193 32.88013 26743 ft 428 kts 89°
2026-05-07 13:32 29.60227 32.91441 27189 ft 430 kts 89°
2026-05-07 13:33 29.60258 32.94898 27616 ft 433 kts 89°
2026-05-07 13:33 29.60288 32.98370 28025 ft 435 kts 89°
2026-05-07 13:33 29.60318 33.01876 28422 ft 438 kts 89°
2026-05-07 13:33 29.60346 33.05348 28796 ft 441 kts 89°
2026-05-07 13:34 29.60374 33.08883 29163 ft 444 kts 89°
2026-05-07 13:34 29.60428 33.16029 29896 ft 448 kts 89°
2026-05-07 13:34 29.60454 33.19611 30247 ft 450 kts 89°
2026-05-07 13:35 29.60479 33.23226 30570 ft 453 kts 89°
2026-05-07 13:35 29.60504 33.26859 30872 ft 456 kts 89°
2026-05-07 13:35 29.60526 33.30459 31186 ft 458 kts 89°
2026-05-07 13:35 29.60549 33.34139 31484 ft 461 kts 89°
2026-05-07 13:36 29.60570 33.37832 31781 ft 463 kts 89°
2026-05-07 13:36 29.60591 33.41555 32057 ft 466 kts 89°
2026-05-07 13:36 29.60611 33.45292 32327 ft 469 kts 89°
2026-05-07 13:36 29.60629 33.49046 32614 ft 470 kts 89°
2026-05-07 13:37 29.60646 33.52759 32926 ft 470 kts 89°
2026-05-07 13:37 29.60662 33.56518 33279 ft 470 kts 89°
2026-05-07 13:37 29.60678 33.60284 33592 ft 470 kts 89°
2026-05-07 13:37 29.60693 33.64043 33882 ft 470 kts 89°
2026-05-07 13:38 29.60707 33.67805 34157 ft 470 kts 89°
2026-05-07 13:38 29.60719 33.71562 34430 ft 470 kts 89°
2026-05-07 13:38 29.60729 33.75336 34691 ft 471 kts 89°
2026-05-07 13:38 29.60740 33.79103 34938 ft 471 kts 90°
2026-05-07 13:39 29.60749 33.82875 35191 ft 471 kts 90°
2026-05-07 13:39 29.60749 33.86596 35424 ft 471 kts 90°
2026-05-07 13:39 29.60740 33.90373 35633 ft 472 kts 90°
2026-05-07 13:39 29.60734 33.94144 35851 ft 472 kts 90°
2026-05-07 13:40 29.60727 33.97929 36075 ft 472 kts 90°
2026-05-07 13:40 29.60723 34.01703 36278 ft 472 kts 90°
2026-05-07 13:40 29.60716 34.05437 36431 ft 473 kts 91°
2026-05-07 13:40 29.60705 34.09227 36617 ft 474 kts 91°
2026-05-07 13:41 29.60694 34.13005 36878 ft 472 kts 91°
2026-05-07 13:41 29.60685 34.16758 36996 ft 468 kts 91°
2026-05-07 13:41 29.60673 34.20497 36996 ft 466 kts 91°
2026-05-07 13:42 29.60661 34.27951 36977 ft 466 kts 91°
2026-05-07 13:42 29.60682 34.35415 36971 ft 466 kts 91°
2026-05-07 13:43 29.60690 34.42863 36971 ft 466 kts 91°
2026-05-07 13:43 29.60697 34.50280 36970 ft 467 kts 91°
2026-05-07 13:44 29.59964 34.57665 36967 ft 464 kts 110°
2026-05-07 13:44 29.58713 34.61046 36970 ft 457 kts 123°
2026-05-07 13:44 29.56903 34.64025 36970 ft 452 kts 135°
2026-05-07 13:45 29.52275 34.68714 36972 ft 445 kts 146°
2026-05-07 13:45 29.47516 34.73265 36968 ft 448 kts 139°
2026-05-07 13:45 29.45547 34.76035 36970 ft 456 kts 127°
2026-05-07 13:46 29.44078 34.79272 36968 ft 461 kts 114°
2026-05-07 13:46 29.43208 34.82887 36971 ft 467 kts 103°
2026-05-07 13:46 29.42730 34.86541 36979 ft 467 kts 101°
2026-05-07 13:47 29.41858 34.93930 36976 ft 468 kts 99°
2026-05-07 13:47 29.41773 34.97637 36971 ft 473 kts 88°
2026-05-07 13:47 29.42323 35.01415 36979 ft 476 kts 77°
2026-05-07 13:48 29.44077 35.08700 36963 ft 477 kts 76°
2026-05-07 13:48 29.45845 35.16063 36958 ft 478 kts 76°
2026-05-07 13:49 29.47577 35.23457 36959 ft 478 kts 77°
2026-05-07 13:49 29.49294 35.30840 36958 ft 479 kts 77°
2026-05-07 13:50 29.51001 35.38184 36960 ft 479 kts 77°
2026-05-07 13:50 29.52721 35.45596 36965 ft 479 kts 77°
2026-05-07 13:51 29.54446 35.52992 36959 ft 480 kts 77°
2026-05-07 13:51 29.56203 35.60339 36955 ft 479 kts 77°
2026-05-07 13:52 29.57959 35.67748 36969 ft 480 kts 77°
2026-05-07 13:52 29.59706 35.75149 36969 ft 480 kts 77°
2026-05-07 13:53 29.61354 35.82588 36969 ft 478 kts 82°
2026-05-07 13:53 29.62583 35.90056 36971 ft 478 kts 82°
2026-05-07 13:54 29.63804 35.97582 36969 ft 478 kts 82°
2026-05-07 13:54 29.65028 36.05103 36964 ft 478 kts 82°
2026-05-07 13:55 29.66253 36.12654 36961 ft 480 kts 82°
2026-05-07 13:55 29.67465 36.20147 36961 ft 480 kts 82°
2026-05-07 13:56 29.68683 36.27711 36960 ft 480 kts 82°
2026-05-07 13:56 29.69897 36.35280 36958 ft 480 kts 82°
2026-05-07 13:57 29.71114 36.42803 36958 ft 481 kts 82°
2026-05-07 13:57 29.72346 36.50388 36961 ft 481 kts 82°
2026-05-07 13:58 29.73575 36.57986 36960 ft 483 kts 83°
2026-05-07 13:58 29.74745 36.65604 36979 ft 482 kts 87°
2026-05-07 13:58 29.74855 36.69440 36976 ft 476 kts 98°
2026-05-07 13:59 29.74390 36.73139 36984 ft 470 kts 108°
2026-05-07 13:59 29.72892 36.80435 36981 ft 467 kts 110°
2026-05-07 14:00 29.71394 36.87738 36954 ft 468 kts 109°
2026-05-07 14:00 29.69939 36.95012 36948 ft 470 kts 109°
2026-05-07 14:01 29.68478 37.02327 36951 ft 469 kts 109°
2026-05-07 14:01 29.67009 37.09645 36948 ft 470 kts 109°
2026-05-07 14:02 29.65538 37.16978 36949 ft 471 kts 110°
2026-05-07 14:02 29.64054 37.24335 36952 ft 471 kts 110°
2026-05-07 14:03 29.62578 37.31624 36955 ft 471 kts 110°
2026-05-07 14:03 29.61082 37.38979 36961 ft 472 kts 110°
2026-05-07 14:04 29.59581 37.46339 36961 ft 473 kts 110°
2026-05-07 14:04 29.58074 37.53709 36959 ft 473 kts 110°
2026-05-07 14:05 29.56561 37.61086 36960 ft 473 kts 111°
2026-05-07 14:05 29.55052 37.68417 36960 ft 474 kts 111°
2026-05-07 14:06 29.53532 37.75798 36960 ft 474 kts 111°
2026-05-07 14:06 29.52009 37.83155 36959 ft 473 kts 111°
2026-05-07 14:07 29.50491 37.90465 36968 ft 473 kts 111°
2026-05-07 14:07 29.48959 37.97830 36970 ft 473 kts 111°
2026-05-07 14:08 29.47595 38.05254 36969 ft 477 kts 109°
2026-05-07 14:08 29.46287 38.12663 36971 ft 477 kts 109°
2026-05-07 14:09 29.44963 38.20133 36978 ft 477 kts 109°
2026-05-07 14:09 29.43860 38.26332 36978 ft 477 kts 109°
2026-05-07 14:10 29.42526 38.33786 36978 ft 477 kts 109°
2026-05-07 14:10 29.40968 38.42469 36979 ft 477 kts 110°
2026-05-07 14:11 29.39843 38.48712 36988 ft 477 kts 110°
2026-05-07 14:11 29.38507 38.56111 36987 ft 476 kts 110°
2026-05-07 14:12 29.37160 38.63543 36989 ft 476 kts 110°
2026-05-07 14:12 29.35809 38.70968 36987 ft 476 kts 110°
2026-05-07 14:13 29.34455 38.78397 36994 ft 476 kts 110°
2026-05-07 14:13 29.33096 38.85825 36998 ft 476 kts 110°
2026-05-07 14:14 29.31668 38.93229 37000 ft 474 kts 112°
2026-05-07 14:14 29.30140 39.00556 37001 ft 475 kts 112°
2026-05-07 14:15 29.28596 39.07922 37000 ft 475 kts 112°
2026-05-07 14:15 29.27051 39.15283 37008 ft 475 kts 112°
2026-05-07 14:16 29.25511 39.22600 37009 ft 475 kts 112°
2026-05-07 14:16 29.23959 39.29957 37013 ft 475 kts 112°
2026-05-07 14:17 29.22399 39.37324 37012 ft 475 kts 112°
2026-05-07 14:17 29.20846 39.44641 37010 ft 475 kts 112°
2026-05-07 14:18 29.19277 39.52006 37011 ft 475 kts 112°
2026-05-07 14:18 29.17705 39.59372 37011 ft 476 kts 112°
2026-05-07 14:19 29.16137 39.66694 37009 ft 475 kts 112°
2026-05-07 14:19 29.14561 39.74035 37009 ft 476 kts 113°
2026-05-07 14:20 29.12975 39.81400 37009 ft 476 kts 113°
2026-05-07 14:20 29.11397 39.88706 37011 ft 476 kts 113°
2026-05-07 14:21 29.10087 39.96200 37009 ft 480 kts 109°
2026-05-07 14:21 29.08917 40.03686 37004 ft 482 kts 109°
2026-05-07 14:22 29.07722 40.11258 37006 ft 483 kts 109°
2026-05-07 14:22 29.06520 40.18829 37009 ft 484 kts 109°
2026-05-07 14:23 29.05311 40.26407 37009 ft 484 kts 109°
2026-05-07 14:23 29.04109 40.33923 37008 ft 483 kts 109°
2026-05-07 14:24 29.02893 40.41482 37010 ft 483 kts 109°
2026-05-07 14:24 29.01668 40.49058 37011 ft 484 kts 109°
2026-05-07 14:25 29.00450 40.56588 37000 ft 483 kts 110°
2026-05-07 14:25 28.99223 40.64132 37000 ft 482 kts 109°
2026-05-07 14:26 28.98004 40.71620 37000 ft 482 kts 110°
2026-05-07 14:26 28.96770 40.79161 37003 ft 483 kts 110°
2026-05-07 14:27 28.95527 40.86718 37002 ft 483 kts 110°
2026-05-07 14:27 28.94279 40.94275 37000 ft 485 kts 110°
2026-05-07 14:28 28.93033 41.01803 36993 ft 485 kts 110°
2026-05-07 14:28 28.91774 41.09386 36989 ft 485 kts 110°
2026-05-07 14:29 28.90512 41.16958 36986 ft 485 kts 110°
2026-05-07 14:29 28.89244 41.24537 36982 ft 485 kts 110°
2026-05-07 14:30 28.87979 41.32059 36974 ft 485 kts 110°
2026-05-07 14:30 28.86701 41.39643 36973 ft 487 kts 110°
2026-05-07 14:31 28.85416 41.47234 36971 ft 487 kts 110°
2026-05-07 14:31 28.84135 41.54790 36968 ft 487 kts 110°
2026-05-07 14:32 28.82840 41.62388 36972 ft 487 kts 110°
2026-05-07 14:32 28.81541 41.69991 36967 ft 487 kts 110°
2026-05-07 14:33 28.80238 41.77583 36970 ft 487 kts 110°
2026-05-07 14:33 28.78942 41.85127 36961 ft 487 kts 110°
2026-05-07 14:34 28.77629 41.92726 36960 ft 488 kts 110°
2026-05-07 14:34 28.76313 42.00319 36961 ft 488 kts 110°
2026-05-07 14:35 28.74994 42.07893 36961 ft 490 kts 110°
2026-05-07 14:35 28.73663 42.15517 36960 ft 490 kts 110°
2026-05-07 14:36 28.72331 42.23141 36960 ft 490 kts 110°
2026-05-07 14:36 28.70993 42.30758 36955 ft 490 kts 110°
2026-05-07 14:37 28.69656 42.38326 36958 ft 490 kts 110°
2026-05-07 14:37 28.67635 42.49749 36959 ft 490 kts 110°
2026-05-07 14:38 28.66281 42.57366 36961 ft 490 kts 111°
2026-05-07 14:38 28.64924 42.64927 36958 ft 488 kts 112°
2026-05-07 14:39 28.63988 42.68606 36957 ft 476 kts 122°
2026-05-07 14:39 28.62612 42.71974 36961 ft 467 kts 128°
2026-05-07 14:39 28.59530 42.78453 36961 ft 465 kts 130°
2026-05-07 14:40 28.56449 42.84953 36962 ft 468 kts 129°
2026-05-07 14:40 28.53404 42.91448 36961 ft 468 kts 129°
2026-05-07 14:41 28.50333 42.97989 36960 ft 468 kts 129°
2026-05-07 14:41 28.47258 43.04529 36963 ft 468 kts 129°
2026-05-07 14:42 28.44183 43.11059 36961 ft 468 kts 129°
2026-05-07 14:42 28.41118 43.17552 36961 ft 470 kts 129°
2026-05-07 14:43 28.38021 43.24106 36960 ft 470 kts 129°
2026-05-07 14:43 28.34922 43.30663 36961 ft 470 kts 129°
2026-05-07 14:44 28.31839 43.37163 36959 ft 470 kts 130°
2026-05-07 14:44 28.28733 43.43702 36961 ft 470 kts 129°
2026-05-07 14:45 28.25640 43.50205 36959 ft 470 kts 130°
2026-05-07 14:45 28.22524 43.56751 36950 ft 472 kts 130°
2026-05-07 14:46 28.19397 43.63304 36950 ft 472 kts 130°
2026-05-07 14:46 28.16245 43.69833 36949 ft 472 kts 130°
2026-05-07 14:47 28.13102 43.76320 36951 ft 472 kts 130°
2026-05-07 14:47 28.09930 43.82861 36959 ft 472 kts 130°
2026-05-07 14:48 28.06781 43.89341 36960 ft 472 kts 130°
2026-05-07 14:48 28.03607 43.95871 36960 ft 471 kts 130°
2026-05-07 14:49 28.00451 44.02355 36955 ft 471 kts 130°
2026-05-07 14:49 27.97288 44.08847 36951 ft 471 kts 130°
2026-05-07 14:50 27.94119 44.15339 36950 ft 471 kts 130°
2026-05-07 14:50 27.91007 44.21834 36950 ft 471 kts 130°
2026-05-07 14:51 27.87888 44.28355 36951 ft 471 kts 130°
2026-05-07 14:51 27.84757 44.34865 36949 ft 472 kts 130°
2026-05-07 14:52 27.81619 44.41383 36949 ft 471 kts 130°
2026-05-07 14:52 27.78486 44.47888 36949 ft 472 kts 130°
2026-05-07 14:53 27.75337 44.54406 36950 ft 473 kts 130°
2026-05-07 14:53 27.72210 44.60872 36950 ft 472 kts 129°
2026-05-07 14:54 27.69053 44.67395 36950 ft 472 kts 129°
2026-05-07 14:54 27.65905 44.73900 36949 ft 474 kts 128°
2026-05-07 14:55 27.64559 44.77358 36946 ft 487 kts 118°
2026-05-07 14:55 27.63697 44.81095 36951 ft 496 kts 110°
2026-05-07 14:55 27.62366 44.88715 36952 ft 497 kts 109°
2026-05-07 14:56 27.61002 44.96350 36950 ft 495 kts 110°
2026-05-07 14:56 27.59606 45.03917 36950 ft 495 kts 110°
2026-05-07 14:57 27.58197 45.11533 36948 ft 496 kts 110°
2026-05-07 14:57 27.56787 45.19149 36955 ft 496 kts 110°
2026-05-07 14:58 27.55608 45.25484 36959 ft 496 kts 110°
2026-05-07 14:58 27.54190 45.33066 36961 ft 497 kts 110°
2026-05-07 14:59 27.52760 45.40698 36959 ft 497 kts 110°
2026-05-07 14:59 27.51318 45.48353 36960 ft 498 kts 110°
2026-05-07 15:00 27.49878 45.56001 36960 ft 498 kts 110°
2026-05-07 15:00 27.48438 45.63600 36959 ft 497 kts 110°
2026-05-07 15:01 27.46988 45.71231 36960 ft 497 kts 110°
2026-05-07 15:01 27.45547 45.78796 36961 ft 497 kts 110°
2026-05-07 15:02 27.44094 45.86413 36959 ft 497 kts 110°
2026-05-07 15:02 27.42634 45.94029 36959 ft 496 kts 110°
2026-05-07 15:03 27.41178 46.01604 36954 ft 494 kts 110°
2026-05-07 15:03 27.39719 46.09149 36950 ft 496 kts 110°
2026-05-07 15:04 27.38252 46.16736 36949 ft 496 kts 110°
2026-05-07 15:04 27.36783 46.24325 36949 ft 495 kts 110°
2026-05-07 15:05 27.35323 46.31903 36951 ft 496 kts 109°
2026-05-07 15:05 27.33996 46.39488 36950 ft 497 kts 108°
2026-05-07 15:06 27.32668 46.47107 36951 ft 496 kts 108°
2026-05-07 15:06 27.31328 46.54731 36951 ft 496 kts 108°
2026-05-07 15:07 27.29989 46.62336 36946 ft 496 kts 108°
2026-05-07 15:07 27.28646 46.69946 36941 ft 496 kts 108°
2026-05-07 15:08 27.27308 46.77500 36936 ft 495 kts 108°
2026-05-07 15:08 27.25953 46.85100 36931 ft 495 kts 108°
2026-05-07 15:09 27.24602 46.92684 36932 ft 494 kts 108°
2026-05-07 15:09 27.23254 47.00215 36931 ft 494 kts 108°
2026-05-07 15:10 27.21895 47.07791 36929 ft 494 kts 108°
2026-05-07 15:10 27.20530 47.15358 36926 ft 494 kts 108°
2026-05-07 15:11 27.19165 47.22922 36921 ft 493 kts 108°
2026-05-07 15:11 27.17800 47.30446 36915 ft 494 kts 108°
2026-05-07 15:12 27.16423 47.38018 36913 ft 494 kts 108°
2026-05-07 15:12 27.15042 47.45581 36905 ft 494 kts 108°
2026-05-07 15:13 27.13661 47.53135 36904 ft 494 kts 108°
2026-05-07 15:13 27.12273 47.60680 36896 ft 494 kts 108°
2026-05-07 15:14 27.10880 47.68185 36889 ft 494 kts 108°
2026-05-07 15:14 27.09476 47.75742 36890 ft 494 kts 108°
2026-05-07 15:15 27.08070 47.83298 36891 ft 494 kts 108°
2026-05-07 15:15 27.06659 47.90847 36885 ft 493 kts 108°
2026-05-07 15:16 27.05188 47.98364 36876 ft 491 kts 110°
2026-05-07 15:16 27.03546 48.05752 36867 ft 491 kts 110°
2026-05-07 15:17 27.01884 48.13183 36853 ft 491 kts 110°
2026-05-07 15:17 27.00223 48.20640 36855 ft 492 kts 110°
2026-05-07 15:18 26.98560 48.28088 36861 ft 492 kts 110°
2026-05-07 15:18 26.96909 48.35469 36860 ft 491 kts 110°
2026-05-07 15:19 26.95239 48.42899 36861 ft 491 kts 110°
2026-05-07 15:19 26.93565 48.50319 36862 ft 491 kts 110°
2026-05-07 15:20 26.91887 48.57743 36853 ft 491 kts 110°
2026-05-07 15:20 26.90209 48.65172 36848 ft 491 kts 110°
2026-05-07 15:21 26.88533 48.72545 36850 ft 491 kts 110°
2026-05-07 15:21 26.87075 48.80048 36847 ft 493 kts 107°
2026-05-07 15:22 26.85718 48.87584 36844 ft 493 kts 107°
2026-05-07 15:22 26.84360 48.95085 36844 ft 494 kts 107°
2026-05-07 15:23 26.82987 49.02624 36840 ft 494 kts 107°
2026-05-07 15:23 26.81607 49.10171 36837 ft 494 kts 107°
2026-05-07 15:24 26.80225 49.17712 36831 ft 494 kts 107°
2026-05-07 15:24 26.78842 49.25232 36828 ft 493 kts 107°
2026-05-07 15:25 26.77467 49.32689 36829 ft 492 kts 107°
2026-05-07 15:25 26.75327 49.39842 36821 ft 478 kts 126°
2026-05-07 15:26 26.71535 49.45792 36817 ft 468 kts 135°
2026-05-07 15:26 26.67546 49.51565 36817 ft 468 kts 135°
2026-05-07 15:27 26.63602 49.57383 36825 ft 469 kts 134°
2026-05-07 15:27 26.59685 49.63177 36824 ft 470 kts 134°
2026-05-07 15:28 26.55739 49.69014 36822 ft 470 kts 134°
2026-05-07 15:28 26.51794 49.74841 36819 ft 469 kts 134°
2026-05-07 15:29 26.48501 49.81167 36820 ft 483 kts 118°
2026-05-07 15:29 26.46033 49.88174 36818 ft 483 kts 116°
2026-05-07 15:30 26.43576 49.95161 36815 ft 483 kts 117°
2026-05-07 15:30 26.41100 50.02094 36807 ft 483 kts 117°
2026-05-07 15:31 26.38598 50.09057 36799 ft 483 kts 117°
2026-05-07 15:31 26.36100 50.16006 36791 ft 482 kts 117°
2026-05-07 15:32 26.33615 50.22899 36793 ft 482 kts 117°
2026-05-07 15:32 26.31108 50.29845 36791 ft 482 kts 117°
2026-05-07 15:33 26.29432 50.37135 36801 ft 491 kts 102°
2026-05-07 15:33 26.28502 50.44683 36808 ft 491 kts 101°
2026-05-07 15:34 26.27563 50.52193 36811 ft 491 kts 102°
2026-05-07 15:34 26.26585 50.59735 36816 ft 492 kts 102°
2026-05-07 15:35 26.25174 50.67133 36817 ft 484 kts 116°
2026-05-07 15:35 26.22447 50.73948 36827 ft 480 kts 120°
2026-05-07 15:36 26.19626 50.80697 36821 ft 480 kts 120°
2026-05-07 15:36 26.16862 50.87417 36820 ft 480 kts 120°
2026-05-07 15:37 26.14083 50.94181 36821 ft 480 kts 120°
2026-05-07 15:37 26.11291 51.00926 36817 ft 479 kts 121°
2026-05-07 15:38 26.08246 51.07519 36822 ft 478 kts 123°
2026-05-07 15:38 26.05201 51.14038 36817 ft 477 kts 123°
2026-05-07 15:39 26.02134 51.20598 36819 ft 478 kts 122°
2026-05-07 15:39 25.99064 51.27156 36820 ft 477 kts 122°
2026-05-07 15:40 25.96018 51.33623 36816 ft 472 kts 122°
2026-05-07 15:40 25.92900 51.40058 36814 ft 472 kts 123°
2026-05-07 15:41 25.89782 51.46489 36809 ft 473 kts 123°
2026-05-07 15:41 25.86666 51.52918 36811 ft 473 kts 123°
2026-05-07 15:42 25.83543 51.59357 36804 ft 473 kts 123°
2026-05-07 15:42 25.80440 51.65750 36800 ft 473 kts 123°
2026-05-07 15:43 25.77283 51.72159 36800 ft 473 kts 124°
2026-05-07 15:43 25.74045 51.78521 36803 ft 473 kts 124°
2026-05-07 15:44 25.70806 51.84869 36790 ft 472 kts 125°
2026-05-07 15:44 25.67393 51.91020 36792 ft 471 kts 127°
2026-05-07 15:45 25.63917 51.97182 36791 ft 471 kts 127°
2026-05-07 15:45 25.60447 52.03335 36790 ft 470 kts 127°
2026-05-07 15:46 25.55270 52.12528 36788 ft 470 kts 127°
2026-05-07 15:47 25.51797 52.18674 36789 ft 470 kts 127°
2026-05-07 15:47 25.48903 52.23782 36788 ft 470 kts 127°
2026-05-07 15:48 25.45614 52.30041 36789 ft 473 kts 121°
2026-05-07 15:48 25.42686 52.36567 36789 ft 472 kts 120°
2026-05-07 15:49 25.39753 52.43072 36790 ft 472 kts 121°
2026-05-07 15:49 25.36637 52.49406 36790 ft 471 kts 123°
2026-05-07 15:50 25.33480 52.55758 36791 ft 471 kts 123°
2026-05-07 15:50 25.30319 52.62106 36789 ft 471 kts 122°
2026-05-07 15:51 25.27172 52.68458 36790 ft 472 kts 120°
2026-05-07 15:51 25.24441 52.75030 36789 ft 473 kts 117°
2026-05-07 15:52 25.21750 52.81666 36788 ft 472 kts 117°
2026-05-07 15:52 25.19070 52.88261 36297 ft 469 kts 117°
2026-05-07 15:52 25.17718 52.91574 35197 ft 479 kts 117°
2026-05-07 15:53 25.16329 52.94968 33977 ft 491 kts 117°
2026-05-07 15:53 25.14918 52.98417 33228 ft 491 kts 117°
2026-05-07 15:53 25.13545 53.01782 32701 ft 485 kts 117°
2026-05-07 15:53 25.12144 53.05214 32087 ft 481 kts 117°
2026-05-07 15:54 25.10777 53.08558 31515 ft 476 kts 117°
2026-05-07 15:54 25.09342 53.11782 30936 ft 470 kts 123°
2026-05-07 15:54 25.07546 53.14758 30400 ft 462 kts 128°
2026-05-07 15:54 25.05698 53.17656 29775 ft 459 kts 128°
2026-05-07 15:55 25.03872 53.20515 29196 ft 454 kts 128°
2026-05-07 15:55 25.02076 53.23348 28743 ft 448 kts 127°
2026-05-07 15:55 25.00306 53.26145 28214 ft 442 kts 127°
2026-05-07 15:55 24.98550 53.28914 27703 ft 437 kts 127°
2026-05-07 15:56 24.96819 53.31648 27160 ft 432 kts 127°
2026-05-07 15:56 24.95130 53.34309 26635 ft 427 kts 127°
2026-05-07 15:56 24.93436 53.36977 26135 ft 421 kts 127°
2026-05-07 15:56 24.91768 53.39607 25607 ft 416 kts 126°
2026-05-07 15:57 24.90191 53.42265 25071 ft 412 kts 121°
2026-05-07 15:57 24.88795 53.45003 24608 ft 406 kts 120°
2026-05-07 15:57 24.87431 53.47715 24092 ft 401 kts 120°
2026-05-07 15:57 24.86084 53.50395 23560 ft 397 kts 120°
2026-05-07 15:58 24.84750 53.53035 23042 ft 393 kts 120°
2026-05-07 15:58 24.83442 53.55620 22518 ft 389 kts 120°
2026-05-07 15:58 24.82130 53.58213 21973 ft 385 kts 120°
2026-05-07 15:58 24.80833 53.60773 21461 ft 381 kts 120°
2026-05-07 15:59 24.79547 53.63308 20957 ft 377 kts 120°
2026-05-07 15:59 24.78275 53.65814 20415 ft 374 kts 120°
2026-05-07 15:59 24.77013 53.68302 19895 ft 370 kts 120°
2026-05-07 15:59 24.75765 53.70768 19385 ft 366 kts 120°
2026-05-07 16:00 24.74546 53.73169 18893 ft 362 kts 120°
2026-05-07 16:00 24.73313 53.75592 18374 ft 359 kts 120°
2026-05-07 16:00 24.72098 53.77976 17911 ft 355 kts 120°
2026-05-07 16:00 24.70891 53.80348 17381 ft 353 kts 120°
2026-05-07 16:01 24.69695 53.82694 16882 ft 350 kts 120°
2026-05-07 16:01 24.68514 53.85015 16443 ft 345 kts 120°
2026-05-07 16:01 24.67362 53.87275 16013 ft 341 kts 120°
2026-05-07 16:01 24.66210 53.89539 15602 ft 336 kts 120°
2026-05-07 16:02 24.65074 53.91763 15215 ft 330 kts 120°
2026-05-07 16:02 24.63965 53.93951 14849 ft 325 kts 119°
2026-05-07 16:02 24.62989 53.96165 14551 ft 318 kts 116°
2026-05-07 16:02 24.62080 53.98353 14282 ft 311 kts 116°
2026-05-07 16:03 24.61199 54.00484 14030 ft 310 kts 116°
2026-05-07 16:03 24.60305 54.02640 13775 ft 309 kts 116°
2026-05-07 16:03 24.59414 54.04785 13529 ft 308 kts 116°
2026-05-07 16:03 24.58525 54.06924 13279 ft 307 kts 116°
2026-05-07 16:04 24.57640 54.09049 13029 ft 305 kts 116°
2026-05-07 16:04 24.56757 54.11169 12773 ft 304 kts 116°
2026-05-07 16:04 24.55879 54.13275 12527 ft 303 kts 116°
2026-05-07 16:04 24.55004 54.15370 12279 ft 301 kts 116°
2026-05-07 16:05 24.54132 54.17461 12049 ft 300 kts 117°
2026-05-07 16:05 24.53282 54.19552 11998 ft 300 kts 114°
2026-05-07 16:05 24.52527 54.21687 11859 ft 300 kts 113°
2026-05-07 16:05 24.51793 54.23824 11644 ft 299 kts 112°
2026-05-07 16:06 24.51058 54.25966 11400 ft 299 kts 112°
2026-05-07 16:06 24.50329 54.28084 11156 ft 300 kts 112°
2026-05-07 16:06 24.49591 54.30222 11006 ft 300 kts 112°
2026-05-07 16:06 24.48850 54.32372 10991 ft 301 kts 112°
2026-05-07 16:07 24.48107 54.34520 11008 ft 301 kts 112°
2026-05-07 16:07 24.47364 54.36668 10961 ft 301 kts 112°
2026-05-07 16:07 24.46628 54.38794 10770 ft 300 kts 112°
2026-05-07 16:07 24.45886 54.40933 10507 ft 298 kts 112°
2026-05-07 16:08 24.45152 54.43046 10214 ft 295 kts 112°
2026-05-07 16:08 24.44423 54.45152 9917 ft 294 kts 112°
2026-05-07 16:08 24.43696 54.47245 9600 ft 293 kts 112°
2026-05-07 16:08 24.42981 54.49305 9401 ft 284 kts 112°
2026-05-07 16:09 24.42296 54.51274 9204 ft 276 kts 112°
2026-05-07 16:09 24.41405 54.53112 8981 ft 270 kts 127°
2026-05-07 16:09 24.40267 54.54730 8815 ft 264 kts 129°
2026-05-07 16:09 24.39138 54.56282 8676 ft 257 kts 129°
2026-05-07 16:10 24.38029 54.57813 8542 ft 259 kts 129°
2026-05-07 16:10 24.36885 54.59399 8438 ft 263 kts 129°
2026-05-07 16:10 24.35768 54.60957 8315 ft 270 kts 129°
2026-05-07 16:10 24.34599 54.62592 8204 ft 274 kts 129°
2026-05-07 16:11 24.33424 54.64234 8088 ft 273 kts 129°
2026-05-07 16:11 24.32249 54.65872 7969 ft 273 kts 129°
2026-05-07 16:11 24.31078 54.67506 7833 ft 273 kts 129°
2026-05-07 16:11 24.29910 54.69140 7712 ft 272 kts 129°
2026-05-07 16:12 24.28741 54.70775 7586 ft 272 kts 129°
2026-05-07 16:12 24.27575 54.72405 7460 ft 271 kts 129°
2026-05-07 16:12 24.26414 54.74026 7337 ft 270 kts 128°
2026-05-07 16:12 24.25259 54.75642 7040 ft 268 kts 129°
2026-05-07 16:13 24.24097 54.77265 6518 ft 271 kts 129°
2026-05-07 16:13 24.22964 54.78849 6228 ft 261 kts 129°
2026-05-07 16:13 24.21874 54.80369 6053 ft 246 kts 129°
2026-05-07 16:13 24.20823 54.81835 5924 ft 245 kts 129°
2026-05-07 16:14 24.19773 54.83304 5788 ft 244 kts 128°
2026-05-07 16:14 24.18725 54.84774 5649 ft 244 kts 128°
2026-05-07 16:14 24.17681 54.86236 5509 ft 243 kts 128°
2026-05-07 16:14 24.16758 54.87762 5363 ft 243 kts 113°
2026-05-07 16:15 24.16450 54.89553 5207 ft 237 kts 85°
2026-05-07 16:15 24.16906 54.91219 5042 ft 223 kts 59°
2026-05-07 16:15 24.17762 54.92589 5004 ft 216 kts 52°
2026-05-07 16:15 24.18652 54.93915 5012 ft 216 kts 52°
2026-05-07 16:16 24.19712 54.95069 5017 ft 214 kts 28°
2026-05-07 16:16 24.21128 54.95494 5020 ft 220 kts 356°
2026-05-07 16:16 24.22563 54.95011 4673 ft 218 kts 324°
2026-05-07 16:16 24.23693 54.93896 4333 ft 219 kts 318°
2026-05-07 16:17 24.24864 54.92863 4026 ft 218 kts 322°
2026-05-07 16:17 24.26059 54.91807 3724 ft 217 kts 319°
2026-05-07 16:17 24.27150 54.90701 3421 ft 216 kts 314°
2026-05-07 16:17 24.28182 54.89505 3121 ft 215 kts 311°
2026-05-07 16:18 24.29156 54.88265 2824 ft 214 kts 309°
2026-05-07 16:18 24.30085 54.86997 2523 ft 212 kts 308°
2026-05-07 16:18 24.30990 54.85729 2225 ft 210 kts 308°
2026-05-07 16:18 24.31883 54.84471 2034 ft 209 kts 308°
2026-05-07 16:19 24.32779 54.83207 2005 ft 209 kts 308°
2026-05-07 16:19 24.33670 54.81947 2006 ft 209 kts 308°
2026-05-07 16:19 24.34564 54.80686 2018 ft 207 kts 308°
2026-05-07 16:19 24.35407 54.79496 2032 ft 184 kts 308°
2026-05-07 16:20 24.36132 54.78472 2060 ft 154 kts 308°
2026-05-07 16:20 24.36729 54.77631 2032 ft 134 kts 308°
2026-05-07 16:20 24.37290 54.76838 2015 ft 133 kts 308°
2026-05-07 16:20 24.37860 54.76032 2015 ft 133 kts 308°
2026-05-07 16:21 24.38428 54.75230 1928 ft 133 kts 308°
2026-05-07 16:21 24.38993 54.74432 1771 ft 132 kts 308°
2026-05-07 16:21 24.39552 54.73642 1589 ft 131 kts 308°
2026-05-07 16:21 24.40108 54.72858 1415 ft 129 kts 308°
2026-05-07 16:22 24.40660 54.72078 1248 ft 129 kts 308°
2026-05-07 16:22 24.41210 54.71300 1072 ft 128 kts 308°
2026-05-07 16:22 24.41762 54.70529 853 ft 128 kts 309°
2026-05-07 16:22 24.42305 54.69754 697 ft 128 kts 307°
2026-05-07 16:23 24.42837 54.68984 564 ft 128 kts 308°
2026-05-07 16:23 24.43384 54.68211 412 ft 128 kts 308°
2026-05-07 16:23 24.43936 54.67440 207 ft 129 kts 309°
2026-05-07 16:23 24.44493 54.66668 95 ft 127 kts 306°
2026-05-07 16:24 24.44959 54.66006 84 ft 76 kts 308°
2026-05-07 16:24 24.45182 54.65693 82 ft 49 kts 308°
2026-05-07 16:24 24.45291 54.65537 82 ft 16 kts 307°
2026-05-07 16:24 24.45366 54.65405 84 ft 23 kts 295°
2026-05-07 16:25 24.45415 54.65234 80 ft 24 kts 278°
2026-05-07 16:25 24.45426 54.65149 80 ft 1 kts 279°
2026-05-07 16:25 24.45430 54.65121 80 ft 6 kts 278°
2026-05-07 16:25 24.45439 54.65051 84 ft 12 kts 278°
2026-05-07 16:26 24.45474 54.64951 84 ft 17 kts 264°
2026-05-07 16:26 24.45459 54.64836 80 ft 17 kts 300°
2026-05-07 16:26 24.45537 54.64729 82 ft 19 kts 310°
2026-05-07 16:26 24.45566 54.64645 82 ft 20 kts 243°
2026-05-07 16:27 24.45488 54.64549 83 ft 7 kts 218°
2026-05-07 16:27 24.45444 54.64511 81 ft 10 kts 218°
2026-05-07 16:27 24.45385 54.64463 80 ft 9 kts 217°
2026-05-07 16:27 24.45369 54.64397 79 ft 11 kts 300°
2026-05-07 16:28 24.45449 54.64361 83 ft 14 kts 346°
2026-05-07 16:28 24.45552 54.64333 80 ft 17 kts 343°
2026-05-07 16:28 24.45670 54.64292 77 ft 19 kts 336°
2026-05-07 16:28 24.45752 54.64220 78 ft 0 kts 310°
2026-05-07 16:29 24.45763 54.64200 68 ft 8 kts 285°
2026-05-07 16:29 24.45722 54.64154 78 ft 11 kts 201°
2026-05-07 16:29 24.45701 54.64145 78 ft 0 kts 202°